Regional Weather Roundup
Issued by NWS

Home | Current Version | Previous Version | Graphics & Text | Print | Product List | Glossary On
Versions: 1 2 3 4 5 6 7 8 9 10 11 12 13 14 15 16 17 18 19 20 21 22 23 24 25 26 27 28 29 30 31 32 33 34 35 36 37 38 39 40 41 42 43 44 45 46 47 48 49 50
000
ASUS44 KMEG 230100
RWRTN
TENNESSEE HOURLY STATE WEATHER ROUNDUP
NATIONAL WEATHER SERVICE MEMPHIS TN
800 PM CDT FRI JUL 22 2016

TNZ002-004-019-021-049-052-054-088>092-230200-
WEST TENNESSEE

CITY           SKY/WX    TMP DP  RH WIND       PRES   REMARKS
MEMPHIS INTL   CLOUDY    92  74  55 NW5       29.98R HX 101
NWS MEMPHIS      N/A     88 N/A N/A MISG        N/A
JACKSON        CLOUDY    83  75  77 SE3       30.01R HX  90
DYERSBURG      CLOUDY    79  70  73 MISG      30.00S
PARIS          CLEAR     75  72  88 CALM      30.01S
$$

TNZ008-025-027-028-033-062-065-066-230200-
NORTH MIDDLE TENNESSEE

CITY           SKY/WX    TMP DP  RH WIND       PRES   REMARKS
NASHVILLE      CLOUDY    82  68  62 N3        29.99S
CLARKSVILLE    CLOUDY    81  73  76 CALM      29.99F
COOKEVILLE     CLEAR     82  79  89 CALM      30.01S HX  93
CROSSVILLE     CLOUDY    79  73  82 CALM      30.08S
$$

TNZ061-075-076-078-094-096-097-230200-
SOUTH MIDDLE TENNESSEE

CITY           SKY/WX    TMP DP  RH WIND       PRES   REMARKS
TULLAHOMA      CLEAR     82  75  78 CALM      30.03S
WINCHESTER     CLEAR     86  73  66 S3        30.01F HX  93
MCMINNVILLE    CLEAR     81  75  83 CALM      30.01F
COLUMBIA       CLEAR     82  81  94 W6        29.99F HX  95
SHELBYVILLE    CLEAR     84  81  89 CALM      30.00F HX  98
$$

TNZ017-018-042-046-047-230200-
NORTHEAST TENNESSEE

CITY           SKY/WX    TMP DP  RH WIND       PRES   REMARKS
TRI CITIES     MOCLDY    82  69  64 N6        30.04S
$$

TNZ012-013-036-069-073-074-230200-
CENTRAL EAST TENNESSEE

CITY           SKY/WX    TMP DP  RH WIND       PRES   REMARKS
KNOXVILLE      MOCLDY    89  66  46 CALM      30.00R HX  91
OAK RIDGE      MOCLDY    88  71  57 CALM      30.02S HX  94
GATLINBURG     CLEAR     84  64  51 CALM      30.01S
$$

TNZ083-085-099-230200-
SOUTHEAST TENNESSEE

CITY           SKY/WX    TMP DP  RH WIND       PRES   REMARKS
CHATTANOOGA    MOCLDY    83  71  67 S5        30.01R
$$

SKY/WX REPORTED AS FAIR MEANS FEW OR NO CLOUDS BELOW
12 THOUSAND FEET.





USA.gov is the U.S. government's official web portal to all federal, state and local government web resources and services.